Home > Weather > Norrköping > Past weeks

Flag for Sweden Past Weather in Norrköping, Sweden — Yesterday and Last 2 Weeks

Now
63 °F

Scattered clouds.


Feels Like: 63 °F
Forecast: 52 / 69 °F
Wind: 12 mph from Southwest

Location: Norrkoping Airport

Current Time: Jun 28, 2016 at 8:13:25 AM

Latest Report: Jun 28, 2016 at 7:50 AM


Visibility: N/A

Pressure: 29.86 "Hg

Humidity: 68%

Dew Point: 52 °F

Location of NorrköpingLocation

Past Weather in Norrköping — Graph

°F

Norrköping Temperature Yesterday

Maximum temperature yesterday: 72 °F (at 3:50 PM)
Minimum temperature yesterday: 55 °F (at 2:20 AM)
Average temperature yesterday: 63 °F

High & Low Weather Summary for the Past Weeks

 TemperatureHumidityPressure
High82 °F (Jun 25, 2:20 PM)100% (Jun 15, 12:20 AM)30.21 "Hg (Jun 15, 12:20 AM)
Low37 °F (Jun 14, 1:50 AM)25% (Jun 13, 1:50 PM)29.39 "Hg (Jun 18, 2:20 AM)
Average63 °F72%29.83 "Hg
* Reported Jun 13 6:20 AM — Jun 28 6:50 AM, Norrköping, Weather by CustomWeather, © 2016

Note: Actual official high and low records may vary slightly from our data, if they occured in-between our weather recording intervals... More about our weather records

Advertising

Norrköping Weather History for the Previous 24 Hours

Scroll right to see more
 ConditionsComfort  
Time TempWeatherWind HumidityBarometerVisibility
6:50 AM
Tue, Jun 28
61 °FPartly sunny.7 mph83%29.86 "HgN/A
6:20 AM61 °FPartly sunny.6 mph77%29.83 "HgN/A
5:50 AM59 °FPartly sunny.6 mph82%29.86 "HgN/A
5:20 AM59 °FMostly cloudy.6 mph82%29.86 "HgN/A
4:50 AM59 °FOvercast.5 mph82%29.86 "HgN/A
4:20 AM59 °FMostly cloudy.5 mph77%29.86 "HgN/A
3:50 AM59 °FPartly cloudy.5 mph77%29.86 "HgN/A
3:20 AM59 °FOvercast.5 mph77%29.86 "HgN/A
2:50 AM59 °FOvercast.5 mph72%29.86 "HgN/A
2:20 AM59 °FPassing clouds.6 mph77%29.86 "HgN/A
1:50 AM57 °FOvercast.5 mph82%29.86 "HgN/A
1:20 AM55 °FPassing clouds.2 mph88%29.86 "HgN/A
12:50 AM55 °FPassing clouds.No wind82%29.86 "HgN/A
12:20 AM54 °FPassing clouds.2 mph88%29.86 "HgN/A
11:50 PM
Mon, Jun 27
57 °FPassing clouds.No wind82%29.86 "HgN/A
11:20 PM57 °FOvercast.2 mph77%29.86 "HgN/A
10:50 PM55 °FPartly sunny.2 mph82%29.86 "HgN/A
10:20 PM59 °FCool.3 mph72%29.86 "HgN/A
9:50 PM61 °FPassing clouds.6 mph68%29.86 "HgN/A
9:20 PM64 °FPassing clouds.8 mph56%29.86 "HgN/A
8:50 PM66 °FMild.10 mph52%29.86 "HgN/A
8:20 PM66 °FMild.10 mph52%29.86 "HgN/A
7:50 PM68 °FSunny.9 mph53%29.86 "Hg10 mi
7:20 PM68 °FSunny.10 mph49%29.86 "Hg10 mi
6:50 PM68 °FSunny.12 mph49%29.86 "Hg10 mi
6:20 PM70 °FSunny.15 mph43%29.86 "Hg10 mi
5:50 PM68 °FSunny.14 mph46%29.86 "Hg10 mi
5:20 PM70 °FSunny.13 mph46%29.86 "Hg10 mi
4:50 PM70 °FSunny.14 mph43%29.83 "Hg10 mi
4:20 PM70 °FSunny.14 mph50%29.83 "Hg10 mi
3:50 PM72 °FSunny.15 mph44%29.83 "Hg10 mi
3:20 PM70 °FSunny.14 mph43%29.83 "Hg10 mi
2:50 PM70 °FPassing clouds.14 mph50%29.86 "HgN/A
2:20 PM68 °FScattered clouds.14 mph56%29.86 "HgN/A
1:50 PM70 °FScattered clouds.9 mph50%29.86 "HgN/A
1:20 PM68 °FScattered clouds.12 mph53%29.86 "HgN/A
12:50 PM68 °FScattered clouds.12 mph53%29.86 "HgN/A
12:20 PM68 °FScattered clouds.10 mph53%29.86 "HgN/A
11:50 AM64 °FScattered clouds.13 mph60%29.86 "HgN/A
11:20 AM68 °FScattered clouds.14 mph53%29.86 "HgN/A
10:50 AM66 °FScattered clouds.14 mph60%29.86 "HgN/A
10:20 AM66 °FScattered clouds.15 mph60%29.86 "HgN/A
9:50 AM63 °FScattered clouds.13 mph68%29.86 "HgN/A
9:20 AM63 °FScattered clouds.13 mph68%29.86 "HgN/A
8:50 AM63 °FScattered clouds.13 mph68%29.86 "HgN/A
8:20 AM61 °FScattered clouds.10 mph83%29.86 "HgN/A
Weather by CustomWeather, © 2016

See weather overviewHow to use our weather pages